Station YKTV2 - 8637689 - Yorktown USCG Training Center, VA Image indicating link to RSS feed of recent meteorological observations for station YKTV2


Conditions at YKTV2 as of
(7:18 pm EDT)
2318 GMT on 05/27/2024:
     

Click on the graph icon in the table below to see a time series plot of the last five days of that observation.

5-day plot - Wind Direction Wind Direction (WDIR): S ( 190 deg true )
5-day plot - Wind Speed Wind Speed (WSPD): 5.1 kts
5-day plot - Wind Gust Wind Gust (GST): 7.0 kts
5-day plot - Atmospheric Pressure Atmospheric Pressure (PRES):29.75 in
5-day plot - Air Temperature Air Temperature (ATMP): 74.5 °F
5-day plot - Water Temperature Water Temperature (WTMP): 73.0 °F
5-day plot - Wind Speed at 10 Meters Wind Speed at 10 meters (WSPD10M): 5.8 kts
5-day plot - Wind Speed at 20 Meters Wind Speed at 20 meters (WSPD20M): 5.8 kts
5-day plot -  Wind Speed, Wind Gust and Atmospheric Pressure Combined plot of Wind Speed, Gust, and Air Pressure
NOS Water Level Observation Network Water Level
Previous observations
TIME
(EDT)
5-day plot - Wind Direction
WDIR
 
5-day plot - Wind Speed
WSPD
kts
5-day plot - Wind Gust
GST
kts
5-day plot - Wave Height
WVHT
ft
5-day plot - Dominant Wave Period
DPD
sec
5-day plot - Average Wave Period
APD
sec
5-day plot - Mean Wave Direction
MWD
 
5-day plot - Atmospheric Pressure
PRES
in
5-day plot - Pressure Tendency
PTDY
in
5-day plot - Air Temperature
ATMP
°F
5-day plot - Water Temperature
WTMP
°F
5-day plot - Dew Point
DEWP
°F
5-day plot - Salinity
SAL
psu
5-day plot - Visibility
VIS
nmi
5-day plot - Tide (above MLLW)
TIDE
ft
2024-05-27 07:12 pm S 5.1 7.0----29.74- 74.7 73.0----
2024-05-27 07:06 pm S 6.0 11.1----29.74- 74.5 73.0----
2024-05-27 07:00 pm S 8.9 11.1----29.74-0.01 74.8 73.0----
2024-05-27 06:54 pm S 5.1 9.9----29.74- 75.4 73.0----
2024-05-27 06:48 pm S 8.9 14.0----29.74- 75.7 72.9----
2024-05-27 06:42 pm S 8.0 13.0----29.75- 76.1 72.7----
2024-05-27 06:36 pmSSW 11.1 15.0----29.75- 76.3 72.7----
2024-05-27 06:30 pmSSW 11.1 14.0----29.75- 76.3 73.0----
2024-05-27 06:24 pmSSW 11.1 15.0----29.74- 76.6 73.4----
2024-05-27 06:18 pmSSW 12.0 15.9----29.74- 77.0 73.4----
2024-05-27 06:12 pmSSW 11.1 15.9----29.74- 77.5 72.9----
2024-05-27 06:06 pm S 11.1 17.1----29.74- 78.8 72.3----
2024-05-27 06:00 pm--------- 79.5 72.3----
2024-05-27 05:54 pm--------- 80.2 72.5----
2024-05-27 05:48 pm S 9.9 14.0----29.73- 80.4 72.5----
2024-05-27 05:42 pm S 8.0 14.0----29.73- 80.1 72.3----
2024-05-27 05:36 pm S 8.9 13.0----29.73- 80.1 72.0----
2024-05-27 05:30 pm S 8.0 12.0----29.73-- 71.4----
2024-05-27 05:24 pm S 8.9 13.0----29.74-- 70.9----
2024-05-27 05:18 pm S 8.0 12.0----29.73- 80.4 70.9----
2024-05-27 05:12 pm S 6.0 12.0----29.73- 80.6 70.9----
2024-05-27 05:06 pm S 8.0 13.0----29.74- 80.8 70.9----
2024-05-27 05:00 pm S 11.1 15.9----29.74-0.05 81.0 71.1----
2024-05-27 04:54 pm S 9.9 15.9----29.73- 81.3 71.4----
2024-05-27 04:48 pm S 11.1 15.0----29.72- 81.3 71.6----
2024-05-27 04:42 pm S 11.1 15.9----29.73- 81.1 72.0----
2024-05-27 04:36 pm S 8.0 14.0----29.73- 80.6 72.1----
2024-05-27 04:30 pm-------29.73- 80.8 72.0----
2024-05-27 04:24 pm-------29.73- 81.1 72.1----
2024-05-27 04:18 pm S 9.9 14.0----29.74- 80.6 72.1----
2024-05-27 04:12 pmSSE 8.9 12.0----29.73- 80.4 72.1----
2024-05-27 04:06 pm S 9.9 15.0----29.74- 80.2 72.3----
2024-05-27 04:00 pm S 8.9 14.0----29.75-0.06 80.1 72.1----
2024-05-27 03:54 pmSSW 9.9 18.1----29.75- 79.7 72.1----
2024-05-27 03:48 pm S 14.0 18.1------ 79.5 72.1----
2024-05-27 03:42 pm S 13.0 19.0------ 79.2 72.3----
2024-05-27 03:36 pm S 13.0 17.1------ 79.2 72.3----
2024-05-27 03:30 pmSSW 11.1 22.0----29.77- 78.8 72.5----
2024-05-27 03:24 pmSSW 12.0 20.0----29.77- 78.3 72.5----
2024-05-27 03:18 pm S 14.0 18.1----29.77- 78.1 72.5----
2024-05-27 03:12 pm S 8.9 15.0----29.77- 77.9 72.9----
2024-05-27 03:06 pm S 8.9 14.0----29.76- 77.5 72.9----
2024-05-27 03:00 pmSSW 12.0 15.9----29.76-0.10 77.2 72.9----
2024-05-27 02:54 pm S 8.0 12.0----29.76- 77.0 72.9----
2024-05-27 02:48 pmSSE 11.1 14.0----29.75- 76.6 73.0----
2024-05-27 02:42 pmSSE 13.0 18.1----29.76- 76.5 73.2----
2024-05-27 02:36 pmSSE 12.0 15.0----29.77- 76.3 73.0----
2024-05-27 02:30 pm S 13.0 21.0----29.77- 76.1 73.0----
2024-05-27 02:24 pm S 14.0 20.0----29.78- 76.1 73.0----
2024-05-27 02:18 pmSSE 11.1 15.0----29.79- 75.9 73.0----
2024-05-27 02:12 pmSSE 8.9 11.1----29.78- 75.6 73.0----
2024-05-27 02:06 pmSSE 8.9 12.0----29.79- 75.4 72.9----
2024-05-27 02:00 pm S 11.1 15.0----29.79-0.06 75.0 72.9----
2024-05-27 01:54 pmSSE 9.9 14.0----29.79- 74.7 72.9----
2024-05-27 01:48 pmSSE 11.1 15.9----29.80-- 72.9----
2024-05-27 01:42 pm S 9.9 18.1----29.80-- 72.9----
2024-05-27 01:36 pm S 15.0 19.0----29.81-- 72.9----
2024-05-27 01:30 pm S 13.0 15.9----29.81- 73.4 72.9----
2024-05-27 01:24 pmSSE 11.1 14.0----29.81- 72.9 72.7----
2024-05-27 01:18 pmSSE 12.0 15.9----29.81- 72.7 72.7----
2024-05-27 01:12 pmSSE 9.9 14.0----29.81- 72.5 72.9----
2024-05-27 01:06 pm S 9.9 12.0----29.81- 72.1 72.7----
2024-05-27 01:00 pmSSE 11.1 15.0----29.81-0.05 72.1 72.9----
2024-05-27 12:54 pmSSE 12.0 15.9----29.81- 71.8 72.9----
2024-05-27 12:48 pm S 11.1 15.0----29.81- 71.8 72.9----
2024-05-27 12:42 pm S 11.1 13.0----29.82- 71.6 72.9----
2024-05-27 12:36 pm S 12.0 18.1----29.82- 72.0 72.9----
2024-05-27 12:30 pm S 13.0 17.1----29.82- 72.0 72.9----
2024-05-27 12:24 pmSSE 12.0 19.0----29.83- 71.8 72.9----
2024-05-27 12:18 pmSSE 14.0 19.0----29.83- 71.6 72.7----
2024-05-27 12:12 pmSSE 13.0 15.9----29.84- 71.8 72.7----
2024-05-27 12:06 pm S 11.1 17.1----29.85- 71.8 72.7----
2024-05-27 12:00 pmSSE 8.9 13.0----29.86+0.02 71.8 72.7----
2024-05-27 11:54 am S 8.9 13.0----29.88- 71.6 72.9----
2024-05-27 11:48 am SW 7.0 11.1----29.88- 71.4 72.9----
2024-05-27 11:42 amWSW 8.9 14.0----29.88- 71.6 73.0----
2024-05-27 11:36 amWSW 9.9 19.0----29.88- 72.0 73.0----
2024-05-27 11:30 amWSW 15.9 21.0----29.88- 72.5 73.0----
2024-05-27 11:24 am SW 19.0 27.0----29.89- 72.9 73.0----
2024-05-27 11:18 amSSW 9.9 13.0----29.89- 73.4 73.0----
2024-05-27 11:12 am S 6.0 8.0----29.86- 74.1 73.0----
2024-05-27 11:06 am S 5.1 6.0----29.86- 74.5 73.0----
2024-05-27 11:00 am S 2.9 2.9----29.85+0.01 74.7 73.2----
2024-05-27 10:54 am- 0.0 4.1----29.85- 74.5 73.2----
2024-05-27 10:48 amSSE 4.1 4.1----29.85-- 73.2----
2024-05-27 10:42 am SE 1.9 1.9----29.85-- 73.4----
2024-05-27 10:36 am- 0.0 1.0----29.85-- 73.4----
2024-05-27 10:30 am- 0.0 2.9----29.86- 74.8 73.6----
2024-05-27 10:24 am W 2.9 5.1----29.86- 74.8 73.6----
2024-05-27 10:18 am W 4.1 6.0----29.86- 75.0 73.6----
2024-05-27 10:12 am W 5.1 7.0----29.87- 75.6 73.8----
2024-05-27 10:06 am W 6.0 7.0----29.86- 75.7 73.9----
2024-05-27 10:00 amWSW 4.1 7.0----29.86+0.04 76.5 73.9----
2024-05-27 09:54 amSSW 6.0 7.0----29.86- 76.6 74.1----
2024-05-27 09:48 am S 5.1 13.0----29.85- 77.0 74.3----
2024-05-27 09:42 am S 7.0 11.1----29.85- 77.2 74.1----
2024-05-27 09:36 am S 5.1 11.1----29.85- 77.2 74.1----
2024-05-27 09:30 amSSW 8.9 14.0----29.85- 77.5 73.9----
2024-05-27 09:24 am S 7.0 9.9----29.84- 77.7 73.8----
2024-05-27 09:18 am S 7.0 8.0----29.84- 77.5 73.6----
2024-05-27 09:12 amSSE 6.0 7.0----29.84- 77.7 73.4----
2024-05-27 09:06 am S 2.9 5.1----29.84- 77.5 73.4----
2024-05-27 09:00 am S 2.9 6.0----29.84+0.02 77.2 73.4----
2024-05-27 08:54 am S 5.1 6.0----29.84- 76.3 73.4----
2024-05-27 08:48 am S 4.1 6.0----29.84- 76.3 73.4----
2024-05-27 08:42 amSSW 5.1 9.9----29.85- 76.1 73.2----
2024-05-27 08:36 amSSW 7.0 12.0----29.85- 75.9 73.2----
2024-05-27 08:30 amSSW 6.0 9.9----29.85- 75.7 73.2----
2024-05-27 08:24 amSSW 8.0 11.1----29.85- 75.4 73.2----
2024-05-27 08:18 am SW 7.0 9.9----29.84- 75.4 73.2----
2024-05-27 08:12 am SW 7.0 12.0----29.84- 75.4 73.2----
2024-05-27 08:06 amSSW 6.0 8.9----29.84- 75.4 73.2----
2024-05-27 08:00 amSSW 6.0 8.0----29.84+0.01 75.0 73.4----
2024-05-27 07:54 am SW 5.1 8.0----29.83- 74.8 73.4----
2024-05-27 07:48 am S 2.9 6.0----29.83- 74.8 73.4----
2024-05-27 07:42 am S 4.1 6.0----29.83- 74.7 73.6----
2024-05-27 07:36 am S 1.0 5.1----29.83- 74.7 73.6----
2024-05-27 07:30 amSSW 2.9 4.1----29.83- 73.8 73.6----
2024-05-27 07:24 am SW 2.9 2.9----29.83- 73.9 73.4----
2024-05-27 07:18 am SW 2.9 4.1----29.83- 73.6 73.4----
2024-05-27 07:12 am SW 1.9 5.1----29.83- 73.2 73.2----
2024-05-27 07:06 am SW 4.1 5.1----29.83- 73.0 73.2----
2024-05-27 07:00 am SW 2.9 6.0----29.82-0.01 73.0 73.2----
2024-05-27 06:54 amWSW 1.0 1.9----29.83- 74.1 73.0----
2024-05-27 06:48 am- 0.0 1.0----29.83- 74.5 73.0----
2024-05-27 06:42 am- 0.0 1.9----29.82- 73.8 73.0----
2024-05-27 06:36 am W 1.9 1.9----29.82- 72.9 73.2----
2024-05-27 06:30 am SW 1.9 2.9----29.82- 72.7 73.2----
2024-05-27 06:24 am S 1.0 2.9----29.82- 72.7 73.2----
2024-05-27 06:18 am S 1.9 2.9----29.82- 72.7 73.4----
2024-05-27 06:12 amSSE 1.9 5.1----29.82- 72.7 73.6----
2024-05-27 06:06 amSSE 2.9 5.1----29.82- 72.5 73.8----
2024-05-27 06:00 amSSW 1.9 2.9----29.82-0.02 72.5 73.8----
2024-05-27 05:54 am SW 1.9 5.1----29.82- 72.7 73.4----
2024-05-27 05:48 am SW 2.9 4.1----29.82- 73.0 73.2----
2024-05-27 05:42 am NW 1.0 6.0----29.82- 73.0 73.6----
2024-05-27 05:36 amWNW 5.1 6.0----29.82- 73.2 73.8----
2024-05-27 05:30 am- 0.0 5.1----29.82- 73.4 73.9----
2024-05-27 05:24 amSSE 2.9 5.1----29.82- 73.4 73.9----
2024-05-27 05:18 am S 4.1 6.0----29.82- 73.6 73.8----
2024-05-27 05:12 am S 4.1 8.0----29.83- 73.8 73.4----
2024-05-27 05:06 am S 6.0 8.0----29.83- 73.9 73.2----
2024-05-27 05:00 am S 6.0 8.0----29.82-0.02 74.1 73.0----
2024-05-27 04:54 amSSW 6.0 7.0----29.83- 74.1 73.0----
2024-05-27 04:48 am S 5.1 7.0----29.82- 74.3 73.0----
2024-05-27 04:42 amSSW 6.0 8.0----29.83- 74.3 72.9----
2024-05-27 04:36 amWSW 5.1 7.0----29.83- 74.3 72.7----
2024-05-27 04:30 am SW 6.0 7.0----29.84- 74.5 72.7----
2024-05-27 04:24 am SW 6.0 8.9----29.84- 74.5 72.9----
2024-05-27 04:18 am SW 7.0 8.9----29.84- 74.7 73.2----
2024-05-27 04:12 am SW 5.1 7.0----29.84- 74.8 72.9----
2024-05-27 04:06 amSSW 6.0 7.0----29.84- 75.0 73.2----
2024-05-27 04:00 amSSW 5.1 7.0----29.84-0.04 75.0 73.4----
2024-05-27 03:54 amSSW 6.0 8.9----29.84- 75.0 73.6----
2024-05-27 03:48 amSSW 5.1 8.0----29.84- 75.0 73.4----
2024-05-27 03:42 amSSW 7.0 8.9----29.84- 75.2 73.6----
2024-05-27 03:36 amSSW 5.1 8.9----29.84- 75.4 73.8----
2024-05-27 03:30 am S 7.0 9.9----29.84- 75.4 73.8----
2024-05-27 03:24 am S 5.1 8.9----29.84- 75.4 73.6----
2024-05-27 03:18 am S 7.0 9.9----29.84- 75.4 73.6----
2024-05-27 03:12 am S 5.1 8.0----29.84- 75.0 73.6----
2024-05-27 03:06 am S 5.1 7.0----29.84- 75.0 73.6----
2024-05-27 03:00 am S 5.1 7.0----29.84-0.04 74.8 73.8----
2024-05-27 02:54 amSSE 5.1 6.0----29.83- 74.8 73.8----
2024-05-27 02:48 amSSE 5.1 6.0----29.83- 74.7 73.8----
2024-05-27 02:42 am SE 5.1 7.0----29.83- 74.7 73.8----
2024-05-27 02:36 am SE 6.0 7.0----29.83- 74.7 73.9----
2024-05-27 02:30 am SE 5.1 6.0----29.83- 74.7 73.9----
2024-05-27 02:24 amSSE 5.1 6.0----29.84- 74.7 73.9----
2024-05-27 02:18 amSSE 2.9 5.1----29.84- 74.5 73.9----
2024-05-27 02:12 am S 4.1 5.1----29.84- 74.1 73.9----
2024-05-27 02:06 amESE 2.9 6.0----29.84- 74.1 73.9----
2024-05-27 02:00 am E 6.0 7.0----29.84-0.04 74.3 73.8----
2024-05-27 01:54 am E 5.1 6.0----29.84- 74.3 73.8----
2024-05-27 01:48 amENE 2.9 4.1----29.85- 74.3 73.6----
2024-05-27 01:42 am- 0.0 0.0----29.86- 74.5 73.6----
2024-05-27 01:36 am- 0.0 0.0----29.87- 74.3 73.6----
2024-05-27 01:30 am- 0.0 1.0----29.87- 74.3 73.4----
2024-05-27 01:24 amWSW 1.0 1.9----29.87- 74.1 73.4----
2024-05-27 01:18 am SW 1.9 2.9----29.88- 74.3 73.4----
2024-05-27 01:12 am SW 4.1 4.1----29.88- 74.3 73.4----
2024-05-27 01:06 am- 0.0 2.9----29.88- 74.8 73.4----
2024-05-27 01:00 am SW 2.9 2.9----29.88+0.00 75.2 73.4----
2024-05-27 12:54 amSSW 1.0 1.0----29.88- 75.4 73.2----
2024-05-27 12:48 amWSW 1.0 2.9----29.88- 75.4 73.2----
2024-05-27 12:42 am SW 2.9 2.9----29.88- 75.2 73.2----
2024-05-27 12:36 amWSW 2.9 5.1----29.88- 75.4 73.2----
2024-05-27 12:30 amWNW 6.0 8.0----29.88- 75.6 73.2----
2024-05-27 12:24 amWNW 7.0 9.9----29.88- 75.7 73.4----
2024-05-27 12:18 am NW 8.9 9.9----29.88- 75.7 73.4----
2024-05-27 12:12 amWNW 8.0 13.0----29.88- 76.1 73.6----
2024-05-27 12:06 am NW 4.1 7.0----29.88- 75.2 73.6----
2024-05-27 12:00 amNNW 8.9 17.1----29.88+0.00 74.7 73.8----
2024-05-26 11:54 pm W 5.1 12.0----29.88- 74.7 73.8----
2024-05-26 11:48 pm-------29.87-- 73.8----
2024-05-26 11:42 pm-------29.86-- 73.8----
2024-05-26 11:36 pm-------29.87-- 73.6----
2024-05-26 11:30 pm S 5.1 6.0----29.87- 75.2 73.6----
2024-05-26 11:24 pm S 4.1 5.1----29.87- 75.0 73.4----
2024-05-26 11:18 pm S 4.1 5.1----29.88- 74.8 73.2----
2024-05-26 11:12 pmSSE 5.1 6.0----29.88- 74.8 73.0----
2024-05-26 11:06 pm SE 4.1 6.0----29.88- 74.8 73.0----
2024-05-26 11:00 pm SE 4.1 6.0----29.88+0.01 74.8 72.9----
2024-05-26 10:54 pm SE 4.1 6.0----29.89- 74.8 72.9----
2024-05-26 10:48 pmSSE 2.9 4.1----29.88- 74.8 73.0----
2024-05-26 10:42 pmSSE 2.9 4.1----29.89- 74.8 73.0----
2024-05-26 10:36 pm SE 2.9 4.1----29.89- 74.8 73.0----
2024-05-26 10:30 pm---------- 72.9----
2024-05-26 10:24 pm---------- 73.0----
2024-05-26 10:18 pm SE 2.9 4.1----29.88-------
2024-05-26 10:12 pm SE 2.9 4.1----29.88-------
2024-05-26 10:06 pm SE 2.9 4.1----29.88-------
2024-05-26 10:00 pm SE 4.1 5.1----29.88+0.01- 73.0----
2024-05-26 09:54 pmESE 4.1 4.1----29.88-- 73.0----
2024-05-26 09:48 pmESE 2.9 2.9----29.89- 74.5 73.0----
2024-05-26 09:42 pm SE 1.9 4.1----29.88- 74.7 73.0----
2024-05-26 09:36 pm SE 4.1 5.1----29.89- 74.7 73.0----
2024-05-26 09:30 pm SE 4.1 5.1----29.89- 74.7 73.2----
2024-05-26 09:24 pmSSE 4.1 5.1----29.89- 74.7 73.4----
2024-05-26 09:18 pm SE 2.9 4.1----29.89-- 73.6----
2024-05-26 09:12 pm SE 2.9 4.1----29.89-- 73.8----
2024-05-26 09:06 pmSSE 4.1 4.1----29.88-- 73.9----
2024-05-26 09:00 pm S 4.1 5.1----29.88+0.01- 74.1----
2024-05-26 08:54 pmESE 5.1 7.0----29.88-- 74.1----
2024-05-26 08:48 pm E 7.0 8.0----29.87-- 74.1----
2024-05-26 08:42 pmESE 5.1 7.0----29.87-- 73.9----
2024-05-26 08:36 pmESE 5.1 8.0----29.87-- 73.9----
2024-05-26 08:30 pm E 8.9 9.9----29.87- 75.4 73.8----
2024-05-26 08:24 pm E 7.0 8.0----29.87- 75.7 73.6----
2024-05-26 08:18 pm E 2.9 5.1----29.87-- 73.4----
2024-05-26 08:12 pmESE 4.1 5.1----29.87-- 73.4----
2024-05-26 08:06 pm SE 4.1 5.1----29.88-- 73.2----
2024-05-26 08:00 pm SE 2.9 5.1----29.87+0.01- 73.0----
2024-05-26 07:54 pmSSE 5.1 6.0----29.88-- 72.9----